User: anonymous   Login
Location: ??????????
(54.4061°N, 22.6114°E)
Time: 12:36:39
(UTC+00:00)
Language:

STARLINK-71 - Orbit

View from above orbital plane
View from above orbital plane
View from above satellite
View from above satellite

Ground track
Ground track

The orbit data is extracted from the following two-line orbital elements,

1 44252U 19029T   19349.25001157 -.00009916  00000-0 -55267-3 0  9990
2 44252  53.0007 329.5844 0001291  87.8203  82.3296 15.12120078 31012
Epoch (UTC): 15 December 2019 06:00:01
Eccentricity: 0.0001291
inclination: 53.0007°
perigee height: 529 km
apogee height: 530 km
right ascension of ascending node: 329.5844°
argument of perigee: 87.8203°
revolutions per day: 15.12120078
mean anomaly at epoch: 82.3296°
orbit number at epoch: 3101

The dashed part of the orbit path shows where the satellite is in the earth's shadow,  

DLR